Theta_e
334 322 319 320 305 304 298 300 304 304 305 310 311 310 310 312 313 312 337 340 336 340 357 362 361 362 361 360 359 359 360 361 362 362 362 362 362 361 361 360 358 355 352 349 344 342 341 340 338
330 319 315 311 301 295 297 302 303 306 309 312 311 310 309 309 316 321 329 339 337 345 359 359 361 361 361 360 359 358 359 359 360 360 361 361 360 360 359 358 356 353 350 346 344 343 341 340 339
326 319 310 307 302 295 296 302 306 308 310 309 310 312 311 314 326 324 337 338 337 344 355 361 361 360 361 361 359 358 358 358 359 359 359 359 359 358 357 356 356 352 348 346 344 342 341 341 340
322 318 311 302 298 300 301 305 307 307 310 310 312 310 315 325 330 338 339 336 336 341 351 359 361 360 361 361 360 359 359 359 359 358 358 357 357 357 356 356 355 353 349 347 344 343 343 342 341
319 314 301 300 298 302 305 307 309 307 308 310 313 311 314 324 338 340 338 335 334 340 347 357 360 360 361 361 360 359 359 358 358 359 358 357 358 356 356 355 354 353 351 349 346 346 346 345 342
311 311 300 295 297 303 306 308 307 308 311 313 314 312 315 325 336 337 337 335 336 341 348 353 360 360 360 360 359 358 358 357 357 358 357 357 357 356 356 355 354 353 351 350 348 347 347 346 345
307 306 301 299 298 300 304 310 308 309 311 313 316 311 318 322 335 336 336 337 337 342 346 353 356 360 360 359 358 358 357 357 357 356 356 356 356 356 355 354 353 352 351 350 348 348 347 346 346
315 309 301 301 299 300 308 311 313 312 312 318 318 312 312 321 336 336 335 336 337 340 342 350 354 354 356 357 359 358 358 357 357 357 357 356 357 356 356 353 352 352 352 351 349 349 348 346 346
316 304 299 301 301 303 311 309 312 316 314 315 316 316 317 321 336 334 334 334 335 337 341 346 349 352 354 353 356 358 358 358 357 358 357 355 355 356 355 353 353 353 352 351 350 349 348 347 346
307 301 301 308 308 307 309 309 308 309 311 311 314 317 316 317 328 329 331 330 332 333 338 344 348 351 352 350 354 355 354 355 356 356 357 356 355 355 353 353 352 353 352 351 350 350 349 346 340
304 300 306 308 309 307 307 305 309 308 306 311 310 310 313 315 319 322 328 332 330 334 337 341 348 349 349 347 349 351 351 352 354 356 357 356 353 352 353 351 352 352 351 346 346 345 341 339 340
297 301 300 305 303 301 301 302 302 305 307 310 309 312 312 313 315 319 322 328 333 333 336 340 345 347 348 346 346 347 346 349 349 350 356 353 350 350 349 347 347 349 346 345 344 341 342 342 341
297 297 299 301 301 301 302 300 301 304 308 308 309 311 311 312 315 320 327 326 327 335 336 339 344 346 348 348 345 345 347 345 345 347 350 349 347 347 346 345 344 342 343 342 341 340 341 340 341
298 298 298 300 300 301 299 301 301 304 307 306 307 309 310 312 314 317 323 328 328 329 333 342 342 341 346 346 347 346 346 344 343 343 344 348 345 345 341 342 340 340 340 339 339 339 339 338 338
298 294 296 297 299 298 300 297 298 302 304 304 308 311 309 309 311 312 316 322 326 325 330 337 344 344 347 343 346 345 342 341 341 341 344 344 345 344 342 339 338 338 340 341 340 340 340 338 338
294 293 290 295 297 298 298 293 298 302 302 302 303 304 306 308 310 312 313 317 323 321 326 331 335 344 344 341 343 340 340 340 340 341 341 343 343 343 341 338 337 339 339 338 338 338 337 337 337
292 289 289 292 298 297 296 293 299 302 301 301 303 303 305 306 310 313 313 315 318 322 320 326 333 341 346 342 340 340 342 340 340 340 339 341 341 341 340 337 338 340 337 338 338 338 338 337 337
287 288 290 290 295 296 295 295 298 300 300 300 301 302 303 305 308 311 312 314 316 319 323 319 329 336 348 346 343 339 338 339 339 338 339 340 340 340 341 338 340 341 337 339 339 341 340 339 338
291 290 289 292 296 294 294 294 296 299 299 299 300 302 304 305 309 309 310 312 314 318 320 322 321 328 340 343 342 340 338 338 338 340 341 341 340 340 341 337 342 343 340 342 342 341 340 338 339
291 289 289 292 295 294 293 293 297 299 300 301 300 301 303 304 304 305 309 313 315 317 322 323 325 326 332 340 343 344 344 343 342 343 345 344 342 339 341 343 344 343 342 343 342 341 338 339 339
291 290 290 289 293 294 293 291 293 297 299 300 301 303 303 301 302 305 309 313 315 315 317 320 322 324 329 335 339 346 346 345 343 343 344 345 345 341 343 344 346 346 344 342 343 342 341 337 337
288 293 292 291 289 284 292 283 291 294 296 297 299 301 302 301 304 308 309 310 311 313 315 317 321 323 322 327 332 341 336 337 342 345 346 347 346 345 346 348 349 348 345 346 344 343 342 341 335
290 294 292 291 289 288 288 285 289 294 292 295 299 301 302 303 307 308 307 308 309 311 312 315 319 322 323 324 328 327 338 338 343 344 351 352 350 349 348 350 349 348 347 347 346 343 341 339 339
295 292 291 289 288 282 286 285 286 290 293 295 298 300 302 305 308 308 309 309 309 311 312 314 317 319 322 322 324 331 336 340 337 342 341 341 344 348 351 351 349 349 349 347 346 344 341 341 342
292 289 283 281 281 281 287 285 288 294 296 297 297 300 304 306 307 306 308 308 309 310 312 313 315 317 320 321 322 325 333 340 343 344 340 342 341 344 350 351 349 347 348 348 347 345 343 343 342
290 289 283 276 278 281 287 282 288 295 297 299 300 303 305 305 306 307 308 309 310 312 313 313 313 314 318 319 320 322 329 328 336 343 341 340 342 346 352 350 349 349 347 347 347 345 345 346 344
289 286 290 285 285 281 284 287 292 295 296 298 299 302 302 304 306 307 308 309 310 315 315 315 315 316 317 319 321 321 323 330 333 341 340 338 346 346 348 349 348 348 347 348 349 346 347 346 344
292 293 285 286 277 275 281 283 284 290 293 296 297 299 302 304 305 307 308 309 312 314 314 314 315 316 318 319 320 321 324 325 330 338 339 338 344 347 346 347 348 348 349 350 350 348 348 345 339
289 288 289 288 285 279 277 283 293 293 295 296 298 301 301 303 305 307 308 310 311 311 311 313 312 314 316 320 322 323 326 328 333 337 340 341 346 347 345 347 348 348 349 350 349 348 346 342 337
292 290 290 283 281 285 283 283 296 296 297 299 299 300 302 306 306 307 308 310 310 309 310 311 311 312 317 320 324 326 327 329 334 337 340 343 345 345 345 347 347 348 349 349 347 346 343 336 335
Wind_Speed
3 1 4 1 4 2 1 1 3 3 2 3 5 4 6 9 7 4 3 16 16 24 23 24 22 20 19 20 20 19 19 19 18 18 18 18 17 16 16 15 14 14 13 12 11 10 10 10 10
4 3 2 2 4 6 2 2 6 4 6 11 9 5 7 8 15 19 6 16 19 25 21 23 22 20 20 19 19 20 20 19 19 18 17 17 17 16 15 14 14 14 13 12 12 11 10 10 10
1 1 2 3 4 10 3 5 5 5 12 3 6 5 5 4 5 6 5 21 19 22 24 22 24 21 18 18 18 19 20 20 20 19 18 17 16 16 15 14 14 13 13 13 12 10 10 9 10
3 2 3 3 10 1 1 4 4 10 9 3 8 11 5 3 16 10 5 17 22 22 23 24 25 22 20 19 18 19 20 20 20 19 18 18 17 16 15 14 13 13 13 13 12 12 10 9 10
1 2 3 4 4 4 6 2 11 14 11 11 9 10 13 9 20 9 10 18 23 22 20 22 23 22 22 21 19 18 19 20 20 20 20 19 17 16 16 15 14 13 13 13 13 12 11 10 9
3 1 4 9 9 5 9 10 3 5 8 13 12 14 6 15 18 10 5 13 20 21 20 22 21 19 20 22 21 19 18 18 19 20 19 19 18 17 17 16 15 15 14 13 13 12 12 11 10
4 3 8 6 5 8 11 11 8 3 8 5 12 9 10 21 14 9 5 7 12 17 17 17 20 18 16 16 20 19 17 17 17 16 17 16 16 16 16 16 15 15 14 13 13 12 10 10 10
3 4 7 6 10 14 4 5 15 5 12 7 7 8 16 21 10 5 4 7 9 12 14 16 16 18 17 15 14 16 15 13 12 12 12 13 12 12 12 12 13 14 14 13 13 13 12 10 9
2 8 10 11 12 9 3 2 1 2 12 6 5 5 11 15 5 3 2 6 7 9 10 12 15 15 15 15 14 14 15 13 11 11 11 10 10 11 12 11 10 13 13 14 13 12 12 11 9
8 8 13 7 11 9 5 2 5 3 9 14 9 11 11 14 8 9 5 8 9 10 10 10 12 13 13 11 13 14 13 12 12 12 13 11 10 9 10 9 12 12 12 12 12 12 12 11 7
4 10 5 8 6 3 4 3 2 2 16 11 14 16 17 11 9 9 7 8 10 7 6 10 8 8 11 11 8 7 7 8 9 14 12 10 8 8 8 6 7 8 11 8 10 10 9 10 7
6 2 4 8 4 3 5 1 5 9 12 11 12 16 9 11 10 8 6 5 7 12 10 10 10 8 9 8 9 9 9 9 8 11 13 10 8 9 8 6 8 7 6 8 8 6 8 9 10
5 2 5 7 8 6 7 11 9 15 11 11 11 12 13 13 10 6 7 4 4 8 11 14 13 12 10 11 9 10 11 10 11 10 11 10 9 8 8 8 8 7 7 8 7 7 8 9 9
0 3 8 9 9 7 8 16 6 7 4 10 13 13 10 9 9 6 5 9 5 7 9 10 13 17 17 13 13 10 8 9 9 9 9 12 8 7 8 8 8 8 8 7 7 8 8 8 7
0 6 6 12 8 8 6 16 12 4 3 10 18 20 9 5 8 7 6 5 5 3 6 8 11 11 14 17 17 12 9 9 9 9 11 11 11 10 10 8 8 8 8 9 7 7 8 7 7
1 2 5 1 4 3 5 15 2 9 8 7 7 9 6 3 7 6 4 7 7 6 7 9 7 9 15 10 9 9 10 9 9 8 9 13 12 10 9 8 9 8 7 8 7 7 7 7 6
2 2 2 5 6 5 1 6 6 8 11 9 11 8 8 4 6 5 4 6 9 9 8 5 7 8 9 8 10 9 10 9 9 9 8 11 14 13 10 9 8 8 7 8 7 7 8 6 6
1 1 2 4 5 6 12 14 10 17 13 12 9 11 8 7 7 6 4 6 9 8 7 7 6 3 5 7 8 7 10 10 9 11 10 11 9 13 11 8 10 9 8 8 7 8 8 6 6
3 4 6 5 7 8 12 18 17 17 16 17 14 10 9 7 7 3 4 6 7 8 9 5 6 5 3 7 6 9 10 10 10 10 14 12 8 8 8 8 10 10 8 10 10 8 9 7 6
4 5 7 7 6 11 14 20 18 17 15 17 16 14 9 5 3 3 4 6 7 10 10 9 5 3 3 6 9 6 5 8 10 9 10 11 10 8 8 12 11 12 9 9 10 11 6 6 7
5 7 6 9 8 12 12 13 5 8 11 10 12 9 5 6 8 4 7 9 9 11 12 12 11 8 6 10 8 9 7 5 6 10 10 13 15 15 16 13 13 12 11 9 11 11 12 7 6
8 5 6 8 8 9 6 10 10 14 6 5 4 8 9 4 3 7 8 9 11 13 13 14 14 12 9 8 7 10 10 11 10 9 11 11 14 11 14 16 16 13 10 10 11 10 9 8 8
6 1 6 8 12 11 13 8 4 3 6 1 6 7 9 6 6 7 10 12 13 13 15 15 15 15 14 11 9 9 11 10 11 10 10 11 9 14 16 17 17 13 10 10 11 11 11 9 8
3 4 8 4 4 8 4 8 4 4 8 5 9 9 6 7 6 7 9 10 12 13 12 14 16 16 15 13 11 11 13 12 12 10 10 9 10 12 17 19 14 13 12 11 10 10 12 10 9
3 4 6 4 5 4 4 10 10 10 11 15 16 13 9 5 7 9 11 13 14 17 18 15 15 18 16 15 13 13 14 15 15 13 10 10 11 11 15 15 13 12 12 11 10 10 11 11 10
4 5 5 6 5 7 9 11 3 6 10 13 13 8 10 10 11 13 11 12 17 18 18 19 19 18 16 16 16 13 14 12 11 12 10 9 10 11 11 13 14 13 12 10 10 9 9 9 9
5 7 2 8 9 9 8 11 13 14 8 4 5 3 8 10 15 13 15 14 14 15 17 18 20 19 18 18 14 14 14 14 13 14 10 10 11 9 12 13 13 12 12 12 12 9 11 10 9
9 8 5 3 5 7 6 17 13 14 11 5 8 12 13 18 17 11 10 14 16 14 15 18 20 19 19 19 17 15 16 15 15 14 12 14 11 10 12 12 13 13 13 13 12 9 10 10 7
6 8 4 3 4 5 9 6 3 8 13 11 13 10 19 18 16 13 12 14 15 18 20 14 18 21 19 18 18 18 18 17 16 15 14 14 13 13 14 14 14 14 14 14 12 11 12 12 8
8 10 10 7 7 7 11 20 13 15 12 7 13 19 18 15 14 13 15 16 18 18 17 17 18 20 19 18 19 19 19 17 16 16 15 14 15 15 15 15 15 15 15 14 14 13 12 12 10
Wind_Direction
348 326 65 63 253 286 226 151 284 213 256 245 287 240 249 278 223 233 41 179 159 152 159 164 171 178 174 163 155 151 147 144 146 148 148 149 151 153 155 154 152 157 158 154 152 149 141 134 128
340 13 29 156 228 241 226 217 215 250 292 303 276 243 238 261 243 264 263 171 172 153 157 166 172 179 174 169 160 155 152 150 151 152 153 156 156 156 157 155 158 162 162 160 159 156 149 140 133
250 350 223 210 193 234 202 203 175 300 310 269 309 280 283 300 304 272 328 162 163 163 161 164 169 174 181 171 167 162 158 158 157 157 159 161 159 158 162 163 163 169 168 167 164 161 155 150 140
195 151 109 241 225 267 252 199 284 320 323 244 321 284 304 12 332 311 306 161 154 170 166 161 164 171 178 177 174 169 166 165 163 163 164 166 166 166 166 167 168 174 174 174 170 168 166 164 154
120 130 212 238 245 193 182 317 338 323 306 298 337 313 307 353 331 310 172 168 161 171 171 165 163 172 174 178 176 178 174 172 169 168 170 173 172 171 172 170 174 180 181 180 179 174 171 173 167
157 195 214 239 247 207 222 200 290 331 315 307 333 327 334 346 347 358 173 182 166 167 170 167 166 173 179 177 173 181 183 180 176 174 176 178 176 176 176 175 179 185 184 189 186 181 179 176 173
207 203 229 209 265 245 250 160 269 288 302 324 343 315 332 355 354 355 114 175 181 169 169 171 173 175 181 185 176 179 184 186 184 181 179 181 181 182 182 179 183 189 191 191 189 184 187 187 182
201 204 212 222 234 252 215 211 173 259 289 325 347 348 343 343 348 10 102 127 172 176 176 172 177 182 187 191 192 177 183 186 189 183 189 186 184 188 192 187 190 194 192 195 194 188 188 195 198
199 226 230 229 224 241 210 159 108 301 273 293 296 346 332 343 328 328 175 159 164 180 181 184 180 184 189 194 195 186 184 186 189 190 193 185 198 195 197 205 199 206 198 197 196 196 192 194 206
212 234 223 221 237 234 233 319 9 15 297 279 280 304 326 331 346 334 272 207 191 195 197 190 190 191 192 198 199 200 197 198 200 201 200 203 199 205 207 208 209 216 209 207 200 199 198 202 215
182 242 227 220 244 311 274 261 196 165 278 289 306 320 323 323 338 335 338 243 214 202 199 198 196 196 204 201 207 201 202 201 202 202 200 199 194 201 205 206 203 217 211 219 207 203 216 222 220
236 225 266 249 277 274 253 307 252 244 254 281 291 300 311 326 322 325 326 348 231 191 198 194 200 200 206 215 211 214 209 206 207 205 198 193 195 202 205 207 208 212 218 220 223 217 220 225 225
230 192 274 276 271 251 249 248 253 263 276 281 292 302 311 311 311 329 298 329 337 250 211 190 183 197 207 221 222 224 217 209 210 209 205 206 205 208 203 211 213 211 214 218 221 228 220 225 225
151 269 282 280 264 256 260 270 232 265 359 317 296 315 356 329 335 335 321 305 325 343 297 241 206 189 185 201 225 223 231 219 216 217 216 211 215 210 212 216 223 218 216 218 220 223 227 226 228
286 275 260 251 258 247 253 261 250 63 18 241 265 275 289 1 344 2 12 322 298 338 308 291 224 231 211 208 197 216 225 211 216 215 215 210 209 209 214 222 230 228 217 217 219 221 231 229 222
324 246 248 137 318 64 198 255 179 14 2 311 310 311 295 301 318 322 350 343 344 295 57 326 287 209 209 213 208 217 204 206 227 215 210 212 205 202 219 211 229 230 218 212 210 213 224 225 220
86 223 320 310 349 341 224 292 284 327 329 306 308 313 301 316 292 297 340 358 353 344 7 8 308 283 275 229 226 224 217 213 215 220 220 214 203 198 204 220 225 209 222 214 206 209 224 211 220
234 233 227 285 324 307 292 283 290 300 290 276 280 297 275 280 254 277 350 354 343 343 341 359 325 341 253 252 239 233 229 227 216 221 221 223 216 192 202 209 229 213 214 215 206 215 210 218 221
233 237 266 276 291 305 293 292 296 285 269 263 262 261 272 259 255 294 4 347 350 333 339 354 312 350 184 214 228 231 234 225 225 225 222 225 219 227 214 202 215 214 215 216 202 201 207 202 207
213 257 280 283 271 298 292 291 283 275 267 259 253 238 239 210 256 282 324 339 337 327 324 325 320 2 300 286 239 232 222 220 223 232 224 206 184 176 211 240 221 209 213 211 205 201 193 207 191
241 255 284 293 314 284 297 281 236 230 277 250 242 236 270 282 303 323 336 339 343 339 328 322 315 291 240 234 254 240 242 233 214 219 208 194 196 191 191 210 235 207 210 207 205 203 204 189 188
275 216 259 276 296 307 337 287 273 280 296 222 310 315 301 293 299 316 329 334 344 331 321 317 315 308 292 286 264 247 245 242 233 218 226 213 207 189 188 204 221 210 201 207 207 201 206 190 183
261 215 267 272 276 293 256 257 270 211 251 347 296 285 291 287 315 329 340 335 325 322 316 314 311 308 309 303 283 268 250 249 246 240 227 218 216 198 202 203 208 206 203 205 204 191 199 202 196
136 256 269 225 247 244 239 245 186 219 202 241 308 296 301 309 329 331 329 325 322 318 311 309 308 300 301 295 290 266 254 246 249 224 221 205 208 206 205 205 195 204 199 198 195 195 195 202 210
167 281 296 250 205 271 162 280 256 216 233 279 295 295 313 306 316 321 323 325 327 318 310 302 294 293 293 290 287 275 259 252 241 238 226 203 201 199 203 190 186 200 194 187 182 185 198 200 206
217 245 257 277 265 291 286 255 232 211 271 286 287 280 296 312 329 321 320 322 325 324 315 306 301 292 290 279 284 275 263 256 251 241 230 224 216 206 193 188 184 190 175 179 181 184 194 196 206
149 217 339 264 262 270 244 261 267 267 286 305 299 271 300 314 323 315 320 321 322 324 321 316 306 296 287 283 284 275 264 250 246 239 219 219 221 198 186 191 182 169 170 177 172 183 188 194 191
236 144 197 190 258 265 255 276 266 288 298 325 317 325 337 326 318 300 297 315 321 321 312 327 314 295 287 280 272 266 258 246 239 235 218 214 205 189 182 187 173 164 175 174 176 184 185 184 179
189 208 193 249 235 272 297 261 227 277 292 304 314 322 323 319 312 296 291 305 309 320 306 307 310 300 291 282 270 260 254 244 235 229 221 208 200 194 191 183 168 170 169 173 175 184 175 177 161
249 245 221 233 198 233 278 276 272 274 294 305 305 316 317 314 309 290 288 305 308 314 306 308 308 299 291 291 275 259 253 241 228 223 216 205 200 193 193 181 171 168 171 172 177 179 177 167 168